EW7157 Weather Reports


Display with metric or nautical units.
time (UTC)temp
F
wind
direction
speed
MPH
gust
MPH
rain 1hr
in
rain 24hr
in
rain mn
in
humidity
%
barometer
mb
20260503200731 62 135 1.0 4.0 0.00 0.00 0.00 28 1034.6
20260503195827 63 178 0.0 4.0 0.00 0.00 0.00 27 1034.5
20260503192830 63 123 1.0 4.0 0.00 0.00 0.00 26 1034.8
20260503191830 62 93 1.0 5.0 0.00 0.00 0.00 28 1035.0
20260503190828 61 146 0.0 2.0 0.00 0.00 0.00 29 1035.0
20260503185828 60 144 2.0 8.0 0.00 0.00 0.00 29 1035.1
20260503183929 61 265 0.0 0.0 0.00 0.00 0.00 28 1035.1
20260503182928 62 150 1.0 5.0 0.00 0.00 0.00 27 1035.4
20260503182828 61 135 0.0 2.0 0.00 0.00 0.00 28 1035.3
20260503180829 61 127 0.0 2.0 0.00 0.00 0.00 29 1035.3
20260503180727 61 168 0.0 3.0 0.00 0.00 0.00 29 1035.4
20260503175730 60 31 0.0 4.0 0.00 0.00 0.00 30 1035.3
20260503174827 59 109 1.0 4.0 0.00 0.00 0.00 31 1035.7
20260503174727 59 170 1.0 3.0 0.00 0.00 0.00 31 1035.7
20260503173730 59 360 0.0 1.0 0.00 0.00 0.00 29 1035.7
20260503172828 59 164 0.0 1.0 0.00 0.00 0.00 30 1035.9
20260503172727 59 180 0.0 2.0 0.00 0.00 0.00 30 1035.8
20260503171729 59 207 1.0 4.0 0.00 0.00 0.00 31 1035.8
20260503170730 58 90 1.0 2.0 0.00 0.00 0.00 33 1035.9
20260503150529 53 135 0.0 1.0 0.00 0.00 0.00 39 1036.4
20260503130527 49 90 0.0 0.0 0.00 0.00 0.00 51 1036.1
20260503110528 43 180 0.0 0.0 0.00 0.00 0.00 65 1035.2
20260503081629 39 157 0.0 0.0 0.00 0.00 0.00 77 1032.9
20260503072627 41 157 0.0 0.0 0.00 0.00 0.00 74 1032.7
20260503071629 41 157 0.0 0.0 0.00 0.00 0.00 72 1032.8
20260503070727 41 157 0.0 0.0 0.00 0.00 0.00 73 1032.7
20260503055028 42 157 0.0 0.0 0.00 0.00 0.00 69 1033.2
20260503054927 42 157 0.0 0.0 0.00 0.00 0.00 68 1033.1
20260503053929 42 157 0.0 0.0 0.00 0.00 0.00 67 1033.2
20260503052828 43 157 0.0 0.0 0.00 0.00 0.00 67 1033.4
20260503051927 43 157 0.0 0.0 0.00 0.00 0.00 65 1033.5
20260503050929 44 157 0.0 0.0 0.00 0.00 0.00 65 1033.6
20260503045030 44 157 0.0 0.0 0.00 0.00 0.00 63 1033.7
20260503044127 45 157 0.0 0.0 0.00 0.00 0.00 60 1033.8
20260503043127 45 157 0.0 0.0 0.00 0.00 0.00 60 1033.8
20260503042130 46 157 0.0 0.0 0.00 0.00 0.00 58 1034.1
20260503042029 46 157 0.0 0.0 0.00 0.00 0.00 59 1034.0
20260503041127 46 157 0.0 0.0 0.00 0.00 0.00 58 1034.2
20260503040128 46 157 0.0 0.0 0.00 0.00 0.00 56 1034.1
20260503035211 47 157 0.0 0.0 0.00 0.00 0.00 55 1034.3
20260503034213 47 157 0.0 0.0 0.00 0.00 0.00 56 1034.2
20260503033212 47 157 0.0 0.0 0.00 0.00 0.00 57 1034.0
20260503032214 47 157 0.0 0.0 0.00 0.00 0.00 57 1034.1
20260503031311 47 157 0.0 0.0 0.00 0.00 0.00 56 1033.9
20260503030311 48 157 0.0 0.0 0.00 0.00 0.00 55 1034.0
20260503025314 48 157 0.0 0.0 0.00 0.00 0.00 53 1034.1
20260503024411 48 157 0.0 0.0 0.00 0.00 0.00 52 1034.1
20260503023415 48 157 0.0 0.0 0.00 0.00 0.00 51 1034.3
20260503022512 49 157 0.0 0.0 0.00 0.00 0.00 50 1034.3
20260503021513 49 157 0.0 0.0 0.00 0.00 0.00 50 1034.3
20260503020514 50 157 0.0 0.0 0.00 0.00 0.00 50 1034.3
20260503015612 50 157 0.0 0.0 0.00 0.00 0.00 49 1034.3
20260503013613 50 164 1.0 5.0 0.00 0.00 0.00 48 1034.1
20260503012612 51 180 0.0 0.0 0.00 0.00 0.00 48 1034.2
20260503011614 51 180 0.0 0.0 0.00 0.00 0.00 48 1034.0
20260503005613 51 180 0.0 0.0 0.00 0.00 0.00 47 1033.8
20260503003711 51 180 0.0 0.0 0.00 0.00 0.00 46 1033.6
20260503003611 51 180 0.0 0.0 0.00 0.00 0.00 46 1033.6
20260503003511 51 180 0.0 0.0 0.00 0.00 0.00 47 1033.6
20260503002412 52 180 0.0 0.0 0.00 0.00 0.00 46 1033.6
20260503001412 52 180 0.0 0.0 0.00 0.00 0.00 45 1033.6
20260503000412 53 180 0.0 0.0 0.00 0.00 0.00 44 1033.6
20260502235413 53 180 0.0 0.0 0.00 0.00 0.00 44 1033.4
20260502235313 53 180 0.0 0.0 0.00 0.00 0.00 43 1033.3
20260502234312 54 180 0.0 0.0 0.00 0.00 0.00 42 1033.3
20260502233312 54 180 0.0 0.0 0.00 0.00 0.00 40 1033.2
20260502232311 55 180 0.0 0.0 0.00 0.00 0.00 40 1033.0
20260502230313 55 113 0.0 2.0 0.00 0.00 0.00 40 1033.3
20260502225311 56 101 0.0 3.0 0.00 0.00 0.00 40 1033.3
20260502224311 56 315 0.0 0.0 0.00 0.00 0.00 40 1033.3
20260502224215 56 315 0.0 0.0 0.00 0.00 0.00 39 1033.3
20260502223214 57 315 0.0 0.0 0.00 0.00 0.00 38 1033.2
20260502223111 57 221 1.0 6.0 0.00 0.00 0.00 37 1033.2
20260502222114 58 157 0.0 0.0 0.00 0.00 0.00 38 1033.1
20260502222012 58 157 0.0 1.0 0.00 0.00 0.00 38 1033.0
20260502221014 59 157 0.0 0.0 0.00 0.00 0.00 35 1033.1
20260502215014 59 112 0.0 0.0 0.00 0.00 0.00 35 1033.1
20260502214013 60 180 0.0 0.0 0.00 0.00 0.00 34 1033.0
20260502211013 60 157 0.0 0.0 0.00 0.00 0.00 33 1032.8
20260502210012 60 225 0.0 0.0 0.00 0.00 0.00 32 1032.7
20260502205012 61 90 0.0 1.0 0.00 0.00 0.00 32 1032.6
20260502203112 62 180 0.0 0.0 0.00 0.00 0.00 33 1032.5
20260502202112 61 169 0.0 3.0 0.00 0.00 0.00 34 1032.6
20260502201112 61 90 0.0 2.0 0.00 0.00 0.00 34 1032.9
20260502201012 61 90 0.0 1.0 0.00 0.00 0.00 33 1032.9